FW6856 Weather Reports


Display with metric or nautical units.
time (UTC)temp
F
wind
direction
speed
MPH
gust
MPH
rain 1hr
in
rain 24hr
in
rain mn
in
humidity
%
barometer
mb
20260509001542 49 0 0.0 4.0 0.00 0.00 0.00 85 1017.0
20260509000048 50 135 0.0 3.0 0.00 0.00 0.00 85 1017.1
20260508234551 50 0 0.0 4.0 0.00 0.00 0.00 84 1017.0
20260508233050 51 0 0.0 4.0 0.00 0.00 0.00 84 1016.9
20260508231543 51 143 0.0 2.0 0.00 0.00 0.00 82 1016.8
20260508230050 52 0 0.0 2.0 0.00 0.00 0.00 80 1017.2
20260508224550 53 0 0.0 3.0 0.00 0.00 0.00 80 1016.9
20260508223047 53 192 0.0 2.0 0.00 0.00 0.00 78 1016.7
20260508221543 53 0 1.0 2.0 0.00 0.00 0.00 76 1017.1
20260508220051 54 360 0.0 3.0 0.00 0.00 0.00 77 1016.9
20260508214550 54 173 1.0 5.0 0.00 0.00 0.00 74 1017.2
20260508213050 54 225 1.0 5.0 0.00 0.00 0.00 73 1016.8
20260508211539 56 219 1.0 8.0 0.00 0.00 0.00 72 1017.3
20260508210045 57 197 3.0 9.0 0.00 0.00 0.00 69 1017.0
20260508204545 56 360 3.0 10.0 0.00 0.00 0.00 71 1017.0
20260508203043 58 244 1.0 5.0 0.00 0.00 0.00 69 1017.0
20260508201551 57 229 1.0 4.0 0.00 0.00 0.00 70 1017.2
20260508200045 59 360 2.0 6.0 0.00 0.00 0.00 64 1017.3
20260508194544 59 97 2.0 5.0 0.00 0.00 0.00 63 1017.3
20260508193043 59 278 2.0 6.0 0.00 0.00 0.00 63 1017.7
20260508191543 59 247 1.0 4.0 0.00 0.00 0.00 64 1018.0
20260508190044 59 53 1.0 8.0 0.00 0.00 0.00 61 1018.1
20260508184549 58 178 1.0 5.0 0.00 0.00 0.00 65 1018.2
20260508183044 59 205 1.0 6.0 0.00 0.00 0.00 64 1018.3
20260508181555 58 150 3.0 8.0 0.00 0.00 0.00 64 1018.5
20260508180044 59 0 1.0 8.0 0.00 0.00 0.00 68 1018.6
20260508174604 56 224 1.0 12.0 0.00 0.00 0.00 66 1018.5
20260508173051 57 0 2.0 7.0 0.00 0.00 0.00 67 1018.5
20260508171545 55 248 1.0 7.0 0.00 0.00 0.00 68 1018.8
20260508170043 57 196 1.0 8.0 0.00 0.00 0.00 68 1018.8
20260508164546 55 250 2.0 6.0 0.00 0.00 0.00 70 1019.0
20260508163053 56 258 2.0 8.0 0.00 0.00 0.00 68 1019.1
20260508161548 54 164 1.0 5.0 0.00 0.00 0.00 71 1019.3
20260508160045 54 227 1.0 8.0 0.00 0.00 0.00 73 1019.4
20260508154544 55 303 2.0 6.0 0.00 0.00 0.00 72 1019.3
20260508153043 53 97 2.0 9.0 0.00 0.00 0.00 73 1019.5
20260508151544 52 148 1.0 5.0 0.00 0.00 0.00 72 1019.5
20260508150048 52 218 2.0 8.0 0.00 0.00 0.00 73 1019.4
20260508144546 52 70 2.0 6.0 0.00 0.00 0.00 77 1019.3
20260508143044 50 0 1.0 5.0 0.00 0.00 0.00 78 1019.4
20260508141609 50 132 1.0 5.0 0.00 0.00 0.00 81 1019.3
20260508140043 49 0 1.0 4.0 0.00 0.00 0.00 81 1019.2
20260508134558 48 60 2.0 7.0 0.00 0.00 0.00 81 1019.4
20260508133044 47 0 0.0 3.0 0.00 0.00 0.00 82 1019.4
20260508131546 47 360 0.0 4.0 0.00 0.00 0.00 83 1019.3
20260508130043 45 112 1.0 4.0 0.00 0.00 0.00 83 1019.3
20260508124548 45 360 1.0 4.0 0.00 0.07 0.00 84 1018.9
20260508123047 45 360 1.0 4.0 0.00 0.07 0.00 83 1018.8
20260508121551 44 109 1.0 3.0 0.00 0.07 0.00 83 1018.6
20260508120045 44 112 1.0 3.0 0.00 0.07 0.00 82 1018.4
20260508114543 43 360 0.0 3.0 0.00 0.11 0.00 77 1018.1
20260508113052 42 89 2.0 4.0 0.00 0.11 0.00 77 1018.1
20260508111544 41 89 2.0 4.0 0.00 0.11 0.00 79 1017.5
20260508110047 41 96 2.0 4.0 0.00 0.11 0.00 81 1017.4
20260508104544 41 100 2.0 4.0 0.00 0.21 0.00 83 1017.0
20260508103046 41 75 2.0 7.0 0.00 0.21 0.00 85 1016.9
20260508101542 40 236 0.0 3.0 0.00 0.21 0.00 87 1016.9
20260508100042 40 0 0.0 2.0 0.00 0.21 0.00 88 1016.5
20260508094542 40 0 0.0 4.0 0.00 0.24 0.00 88 1016.5
20260508093048 40 327 1.0 6.0 0.00 0.24 0.00 88 1016.2
20260508091550 40 50 0.0 6.0 0.00 0.24 0.00 90 1015.9
20260508090046 39 57 1.0 4.0 0.00 0.24 0.00 94 1015.8
20260508084542 40 0 0.0 2.0 0.00 0.27 0.00 94 1016.2
20260508083059 40 304 0.0 6.0 0.00 0.27 0.00 94 1015.9
20260508081551 40 271 1.0 4.0 0.00 0.27 0.00 94 1015.9
20260508080044 41 316 1.0 5.0 0.00 0.27 0.00 94 1015.9
20260508074549 41 250 1.0 5.0 0.00 0.33 0.00 93 1015.9
20260508073047 41 310 2.0 7.0 0.00 0.33 0.00 93 1015.8
20260508071548 42 285 2.0 9.0 0.00 0.33 0.00 92 1015.7
20260508070047 42 309 3.0 8.0 0.00 0.33 0.00 92 1015.8
20260508064544 42 275 3.0 8.0 0.00 0.36 0.00 92 1015.9
20260508063042 42 280 2.0 6.0 0.00 0.36 0.00 91 1015.6
20260508061549 42 360 3.0 12.0 0.00 0.36 0.00 91 1015.6
20260508060047 43 297 4.0 11.0 0.00 0.36 0.00 90 1015.6
20260508054548 43 320 2.0 10.0 0.00 0.45 0.00 89 1015.5
20260508053049 43 360 5.0 11.0 0.00 0.45 0.00 89 1015.5
20260508051546 43 313 4.0 14.0 0.00 0.45 0.00 88 1015.4
20260508050054 44 360 4.0 15.0 0.00 0.45 0.00 87 1015.5
20260508044553 44 300 7.0 16.0 0.00 0.56 0.00 86 1015.2
20260508043049 44 291 6.0 16.0 0.00 0.56 0.00 86 1015.2
20260508041550 44 244 7.0 15.0 0.00 0.56 0.00 86 1015.2
20260508040043 44 360 6.0 15.0 0.00 0.56 0.00 87 1015.1
20260508034553 44 294 6.0 15.0 0.00 0.56 0.56 87 1015.0
20260508033054 44 360 7.0 16.0 0.00 0.56 0.56 87 1015.2
20260508031551 44 325 5.0 15.0 0.00 0.56 0.56 86 1015.3
20260508030056 44 360 6.0 15.0 0.00 0.56 0.56 87 1015.5
20260508024557 44 288 5.0 16.0 0.00 0.56 0.56 87 1015.4
20260508023052 44 360 7.0 17.0 0.00 0.56 0.56 86 1015.4
20260508021552 44 360 6.0 17.0 0.00 0.56 0.56 86 1015.3
20260508020048 44 360 6.0 15.0 0.00 0.56 0.56 86 1015.4
20260508014550 45 360 5.0 16.0 0.00 0.57 0.56 85 1015.1
20260508013050 45 309 5.0 16.0 0.00 0.57 0.56 85 1014.7
20260508011543 45 360 6.0 17.0 0.00 0.57 0.56 84 1014.9
20260508010040 46 281 6.0 16.0 0.00 0.57 0.56 82 1015.0
20260508004546 46 360 5.0 15.0 0.00 0.66 0.56 83 1015.0
20260508003043 47 360 5.0 13.0 0.00 0.66 0.56 82 1014.9